Location: Ferchesar
(52.6477°N, 12.4298°E)
Time: 04:39:55
(UTC+02:00)

Vanguard 3 - Pass Details

Date: 27 February 2021
Orbit: 508 x 3262 km, 33.3° (Epoch: 15 April)

Event Time Altitude Azimuth Distance (km) Brightness Sun altitude
Rises 16:33:57 0° 224° (SW) 7,039 13.5 9.4°
Reaches altitude 10° 16:40:11 10° 214° (SW) 5,731 12.7 8.5°
Maximum altitude 16:52:05 25° 168° (SSE) 3,742 10.7 6.9°
Drops below altitude 10° 17:00:33 10° 119° (ESE) 3,983 10.3 5.7°
Sets 17:03:54 0° 106° (ESE) 4,582 10.5 5.2°
